E0445 Weather Reports


Display with metric or nautical units.
time (UTC)temp
F
wind
direction
speed
MPH
gust
MPH
rain 1hr
in
rain 24hr
in
rain mn
in
humidity
%
barometer
mb
20260906130519 62 49 1.0 4.0 0.00 0.00 0.00 91 1017.2
20260906125520 62 310 2.0 5.0 0.00 0.00 0.00 92 1017.2
20260906125020 61 344 2.0 5.0 0.00 0.00 0.00 93 1017.0
20260906124019 61 360 2.0 8.0 0.00 0.00 0.00 94 1017.0
20260906123517 60 331 1.0 8.0 0.00 0.00 0.00 94 1017.0
20260906122021 60 340 2.0 6.0 0.00 0.00 0.00 95 1017.1
20260906120518 60 0 0.0 3.0 0.00 0.00 0.00 96 1016.7
20260906115521 60 0 0.0 2.0 0.00 0.00 0.00 96 1016.6
20260906115021 60 0 0.0 2.0 0.00 0.00 0.00 96 1016.7
20260906114016 60 0 0.0 2.0 0.00 0.00 0.00 96 1016.5
20260906112019 60 0 0.0 2.0 0.00 0.00 0.00 96 1016.5
20260906111017 59 0 0.0 2.0 0.00 0.00 0.00 96 1016.3
20260906110518 59 0 0.0 1.0 0.00 0.00 0.00 96 1016.3
20260906105518 59 0 0.0 3.0 0.00 0.00 0.00 96 1016.2
20260906105019 59 0 0.0 3.0 0.00 0.00 0.00 96 1016.2
20260906104535 59 0 0.0 3.0 0.00 0.00 0.00 96 1016.1
20260906104016 59 0 0.0 1.0 0.00 0.00 0.00 96 1016.2
20260906103518 59 0 0.0 1.0 0.00 0.00 0.00 96 1016.1
20260906103034 59 0 0.0 2.0 0.00 0.00 0.00 96 1015.9
20260906102520 59 0 0.0 3.0 0.00 0.00 0.00 96 1015.9
20260906102017 59 14 0.0 3.0 0.00 0.00 0.00 96 1015.9
20260906101535 59 27 0.0 4.0 0.00 0.00 0.00 96 1015.9
20260906101018 59 0 1.0 4.0 0.00 0.00 0.00 96 1015.7
20260906100520 59 0 0.0 3.0 0.00 0.00 0.00 96 1015.6
20260906095518 59 0 0.0 4.0 0.00 0.00 0.00 96 1015.5
20260906095021 59 0 0.0 4.0 0.00 0.00 0.00 96 1015.5
20260906094016 59 40 0.0 3.0 0.00 0.00 0.00 96 1015.4
20260906093518 59 0 0.0 3.0 0.00 0.00 0.00 96 1015.4
20260906092520 60 0 0.0 1.0 0.00 0.00 0.00 97 1015.3
20260906092019 60 0 0.0 1.0 0.00 0.00 0.00 97 1015.2
20260906091019 60 0 0.0 0.0 0.00 0.00 0.00 97 1015.2
20260906090518 60 0 0.0 0.0 0.00 0.00 0.00 97 1015.2
20260906090038 59 0 0.0 1.0 0.00 0.00 0.00 97 1015.2
20260906085520 59 0 0.0 1.0 0.00 0.00 0.00 97 1015.2
20260906085017 59 0 0.0 2.0 0.00 0.00 0.00 97 1015.2
20260906084535 59 0 0.0 3.0 0.00 0.00 0.00 97 1015.1
20260906084021 59 38 0.0 3.0 0.00 0.00 0.00 97 1015.1
20260906083520 59 0 0.0 4.0 0.00 0.00 0.00 97 1015.1
20260906082519 59 40 0.0 4.0 0.00 0.00 0.00 97 1015.1
20260906082017 59 0 0.0 1.0 0.00 0.00 0.00 97 1015.0
20260906081016 59 0 0.0 4.0 0.00 0.00 0.00 97 1015.0
20260906080518 59 42 1.0 4.0 0.00 0.00 0.00 97 1014.9
20260906080038 59 0 0.0 1.0 0.00 0.00 0.00 97 1015.0
20260906075518 59 0 0.0 0.0 0.00 0.00 0.00 97 1014.9
20260906075017 58 0 0.0 0.0 0.00 0.00 0.00 97 1014.9
20260906074545 58 0 0.0 0.0 0.00 0.00 0.00 97 1014.8
20260906074020 58 0 0.0 0.0 0.00 0.00 0.00 97 1015.0
20260906073520 58 0 0.0 0.0 0.00 0.00 0.00 97 1014.8
20260906072520 57 0 0.0 0.0 0.00 0.00 0.00 96 1014.8
20260906072019 57 0 0.0 0.0 0.00 0.00 0.00 96 1014.7
20260906071018 57 0 0.0 0.0 0.00 0.00 0.00 96 1014.9
20260906070516 57 0 0.0 0.0 0.00 0.00 0.00 96 1014.8
20260906070035 57 0 0.0 0.0 0.00 0.00 0.00 96 1014.8
20260906065518 58 0 0.0 0.0 0.00 0.00 0.00 96 1014.7
20260906065019 58 0 0.0 0.0 0.00 0.00 0.00 96 1014.8
20260906064019 58 0 0.0 0.0 0.00 0.00 0.00 96 1014.6
20260906063518 58 0 0.0 0.0 0.00 0.00 0.00 96 1014.5
20260906062518 59 0 0.0 0.0 0.00 0.00 0.00 96 1014.6
20260906062018 59 0 0.0 0.0 0.00 0.00 0.00 96 1014.6
20260906061020 59 0 0.0 1.0 0.00 0.00 0.00 97 1014.5
20260906060520 59 0 0.0 1.0 0.00 0.00 0.00 97 1014.5
20260906055517 59 0 0.0 3.0 0.00 0.00 0.00 96 1014.6
20260906055017 59 336 1.0 3.0 0.00 0.00 0.00 96 1014.7
20260906054542 59 336 0.0 2.0 0.00 0.00 0.00 96 1014.7
20260906054016 59 336 1.0 2.0 0.00 0.00 0.00 96 1014.8
20260906053521 59 336 0.0 2.0 0.00 0.00 0.00 96 1014.9
20260906051021 60 0 0.0 0.0 0.00 0.00 0.00 97 1015.3
20260906050520 60 0 0.0 0.0 0.00 0.00 0.00 97 1015.3
20260906045519 59 0 0.0 0.0 0.00 0.00 0.00 96 1015.4
20260906045019 59 0 0.0 1.0 0.00 0.00 0.00 96 1015.4
20260906044018 59 336 0.0 1.0 0.00 0.00 0.00 96 1015.3
20260906043518 59 0 0.0 0.0 0.00 0.00 0.00 96 1015.2
20260906042518 59 0 0.0 0.0 0.00 0.00 0.00 96 1015.1
20260906042020 59 0 0.0 2.0 0.00 0.00 0.00 96 1015.1
20260906041020 59 336 0.0 2.0 0.00 0.00 0.00 95 1015.0
20260906040516 59 0 0.0 0.0 0.00 0.00 0.00 95 1015.1
20260906035518 59 0 0.0 0.0 0.00 0.00 0.00 95 1015.0
20260906035018 59 0 0.0 0.0 0.00 0.00 0.00 95 1014.9
20260906034020 59 0 0.0 0.0 0.00 0.00 0.00 94 1014.8
20260906033521 59 0 0.0 0.0 0.00 0.00 0.00 94 1014.9
20260906032520 59 0 0.0 0.0 0.00 0.00 0.00 94 1014.7
20260906032021 59 0 0.0 0.0 0.00 0.00 0.00 94 1014.7
20260906031019 60 0 0.0 0.0 0.00 0.00 0.00 94 1014.7
20260906030520 59 0 0.0 1.0 0.00 0.00 0.00 93 1014.6
20260906030039 60 0 0.0 1.0 0.00 0.00 0.00 93 1014.5
20260906025516 60 0 0.0 1.0 0.00 0.00 0.00 93 1014.5
20260906024020 60 0 0.0 0.0 0.00 0.00 0.00 92 1014.6
20260906023521 60 0 0.0 0.0 0.00 0.00 0.00 92 1014.5
20260906022520 61 0 0.0 0.0 0.00 0.00 0.00 91 1014.5
20260906022023 61 0 0.0 0.0 0.00 0.00 0.00 91 1014.5
20260906021022 61 0 0.0 0.0 0.00 0.00 0.00 90 1014.4
20260906020517 62 0 0.0 1.0 0.00 0.00 0.00 90 1014.5
20260906015516 62 0 0.0 1.0 0.00 0.00 0.00 89 1014.4
20260906014020 62 0 0.0 1.0 0.00 0.00 0.00 88 1014.3
20260906013520 63 0 0.0 1.0 0.00 0.00 0.00 88 1014.2
20260906012520 63 0 0.0 0.0 0.00 0.00 0.00 88 1014.1
20260906012024 63 0 0.0 1.0 0.00 0.00 0.00 88 1014.2
20260906010520 63 0 0.0 3.0 0.00 0.00 0.00 88 1014.4
20260906005520 63 0 0.0 1.0 0.00 0.00 0.00 87 1014.3
20260906005018 63 0 0.0 3.0 0.00 0.00 0.00 87 1014.2
20260906004022 63 0 0.0 2.0 0.00 0.00 0.00 87 1013.9
20260906003517 64 0 0.0 2.0 0.00 0.00 0.00 86 1013.9
20260906003038 64 0 0.0 5.0 0.00 0.00 0.00 87 1013.9
20260906002517 64 0 0.0 5.0 0.00 0.00 0.00 87 1013.9
20260906002020 63 15 0.0 5.0 0.00 0.00 0.00 88 1013.9
20260906001018 63 0 0.0 0.0 0.00 0.00 0.00 88 1014.0
20260906000520 63 0 0.0 0.0 0.00 0.00 0.00 87 1013.9
20260905235518 64 0 0.0 1.0 0.00 0.00 0.00 87 1013.8
20260905235021 64 0 0.0 2.0 0.00 0.00 0.00 86 1013.8
20260905234019 64 0 1.0 2.0 0.00 0.00 0.00 86 1013.7
20260905233517 65 346 0.0 3.0 0.00 0.00 0.00 85 1013.8
20260905232520 65 342 1.0 3.0 0.00 0.00 0.00 85 1013.7
20260905231020 66 0 0.0 2.0 0.00 0.00 0.00 82 1013.6
20260905230518 67 342 0.0 3.0 0.00 0.00 0.00 81 1013.6
20260905225523 67 19 1.0 4.0 0.00 0.00 0.00 81 1013.7
20260905225016 67 334 1.0 4.0 0.00 0.00 0.00 81 1013.6
20260905224021 67 327 1.0 3.0 0.00 0.00 0.00 80 1013.6
20260905223519 68 327 1.0 3.0 0.00 0.00 0.00 80 1013.6
20260905222517 68 260 1.0 5.0 0.00 0.00 0.00 78 1013.7
20260905222018 69 0 1.0 5.0 0.00 0.00 0.00 78 1013.6
20260905221534 69 34 1.0 5.0 0.00 0.00 0.00 77 1013.6
20260905221020 69 348 0.0 4.0 0.00 0.00 0.00 78 1013.4
20260905220518 69 0 1.0 4.0 0.00 0.00 0.00 76 1013.3
20260905215520 70 324 2.0 6.0 0.00 0.00 0.00 74 1013.3
20260905215019 71 324 2.0 6.0 0.00 0.00 0.00 73 1013.3
20260905214536 72 332 3.0 8.0 0.00 0.00 0.00 71 1013.2
20260905214018 71 350 2.0 8.0 0.00 0.00 0.00 73 1013.2
20260905213521 72 316 3.0 9.0 0.00 0.00 0.00 71 1013.2
20260905212520 73 36 4.0 10.0 0.00 0.00 0.00 69 1013.2
20260905212020 73 15 4.0 10.0 0.00 0.00 0.00 68 1013.2
20260905211020 73 52 3.0 10.0 0.00 0.00 0.00 70 1013.1
20260905210520 72 270 3.0 7.0 0.00 0.00 0.00 70 1013.1
20260905205516 72 319 4.0 9.0 0.00 0.00 0.00 68 1013.1
20260905205020 73 355 3.0 9.0 0.00 0.00 0.00 69 1013.0
20260905204016 73 47 6.0 12.0 0.00 0.00 0.00 66 1013.0
20260905202523 72 307 2.0 9.0 0.00 0.00 0.00 70 1012.9
20260905202020 72 335 2.0 9.0 0.00 0.00 0.00 70 1013.0
20260905201018 73 5 3.0 11.0 0.00 0.00 0.00 67 1012.9
20260905200518 73 54 5.0 11.0 0.00 0.00 0.00 66 1012.9
20260905195523 72 15 3.0 10.0 0.00 0.00 0.00 71 1013.0
20260905195020 72 12 4.0 9.0 0.00 0.00 0.00 72 1013.0
20260905194020 71 340 4.0 10.0 0.00 0.00 0.00 71 1013.0
20260905193518 71 290 4.0 10.0 0.00 0.00 0.00 70 1013.1
20260905192019 72 35 3.0 10.0 0.00 0.00 0.00 69 1013.1
20260905191020 71 41 3.0 9.0 0.00 0.00 0.00 70 1013.1
20260905190521 72 16 3.0 6.0 0.00 0.00 0.00 70 1013.2
20260905185518 72 34 3.0 8.0 0.00 0.00 0.00 67 1013.2
20260905185020 73 42 2.0 8.0 0.00 0.00 0.00 67 1013.2
20260905184019 72 74 2.0 10.0 0.00 0.00 0.00 70 1013.1
20260905183519 73 32 5.0 9.0 0.00 0.00 0.00 66 1013.2
20260905182521 73 21 2.0 9.0 0.00 0.00 0.00 71 1013.2
20260905182018 73 328 3.0 9.0 0.00 0.00 0.00 66 1013.1
20260905181018 72 26 1.0 6.0 0.00 0.00 0.00 68 1013.2
20260905180519 72 5 2.0 6.0 0.00 0.00 0.00 68 1013.1
20260905180037 72 51 1.0 6.0 0.00 0.00 0.00 73 1013.2
20260905175521 71 293 2.0 5.0 0.00 0.00 0.00 73 1013.3
20260905175021 70 333 1.0 4.0 0.00 0.00 0.00 73 1013.2
20260905174018 70 360 2.0 5.0 0.00 0.00 0.00 73 1013.3
20260905173519 70 29 2.0 7.0 0.00 0.00 0.00 74 1013.4
20260905172516 71 44 3.0 11.0 0.00 0.00 0.00 68 1013.4
20260905172020 72 17 3.0 9.0 0.00 0.00 0.00 70 1013.4
20260905171535 72 340 3.0 8.0 0.00 0.00 0.00 72 1013.5
20260905171016 71 261 4.0 9.0 0.00 0.00 0.00 70 1013.5
20260905170518 70 314 5.0 9.0 0.00 0.00 0.00 73 1013.6
20260905170036 71 327 3.0 8.0 0.00 0.00 0.00 70 1013.6
20260905165020 70 327 3.0 5.0 0.00 0.00 0.00 73 1013.6
20260905164018 70 319 3.0 9.0 0.00 0.00 0.00 74 1013.6
20260905163518 70 317 3.0 9.0 0.00 0.00 0.00 70 1013.8
20260905163038 70 34 3.0 9.0 0.00 0.00 0.00 74 1013.8
20260905162519 71 11 3.0 8.0 0.00 0.00 0.00 70 1013.8
20260905162017 71 302 3.0 9.0 0.00 0.00 0.00 73 1013.8
20260905161021 70 318 5.0 9.0 0.00 0.00 0.00 72 1013.8
20260905160520 70 360 4.0 9.0 0.00 0.00 0.00 71 1013.7
20260905155518 70 37 3.0 11.0 0.00 0.00 0.00 76 1013.8
20260905155018 69 25 4.0 11.0 0.00 0.00 0.00 75 1013.9
20260905154019 69 319 3.0 8.0 0.00 0.00 0.00 74 1013.8
20260905153517 69 52 3.0 10.0 0.00 0.00 0.00 75 1013.8
20260905152519 69 51 3.0 10.0 0.00 0.00 0.00 78 1013.9
20260905152018 68 14 5.0 10.0 0.00 0.00 0.00 75 1013.9
20260905151023 69 334 5.0 10.0 0.00 0.00 0.00 76 1014.0
20260905150519 69 310 3.0 8.0 0.00 0.00 0.00 76 1013.9
20260905145516 69 55 4.0 14.0 0.00 0.00 0.00 75 1013.9
20260905145017 68 322 5.0 14.0 0.00 0.00 0.00 77 1013.9
20260905144540 68 56 6.0 11.0 0.00 0.00 0.00 77 1013.9
20260905144018 68 49 3.0 11.0 0.00 0.00 0.00 78 1013.9
20260905143519 69 44 4.0 11.0 0.00 0.00 0.00 77 1013.8
20260905142517 68 355 6.0 13.0 0.00 0.00 0.00 80 1013.8
20260905142017 68 32 5.0 10.0 0.00 0.00 0.00 80 1013.9
20260905141019 66 32 4.0 10.0 0.00 0.00 0.00 82 1013.8
20260905140518 66 0 3.0 10.0 0.00 0.00 0.00 82 1013.8
20260905135520 66 320 3.0 8.0 0.00 0.00 0.00 83 1013.9
20260905135020 66 319 4.0 11.0 0.00 0.00 0.00 83 1013.8
20260905134023 67 26 3.0 10.0 0.00 0.00 0.00 83 1013.9
20260905133518 67 305 4.0 9.0 0.00 0.00 0.00 84 1014.0
20260905132516 65 51 3.0 8.0 0.00 0.00 0.00 87 1013.9
20260905132017 65 32 3.0 8.0 0.00 0.00 0.00 86 1013.8
20260905131541 64 355 4.0 11.0 0.00 0.00 0.00 86 1013.8
20260905131018 65 26 3.0 11.0 0.00 0.00 0.00 86 1013.9